Date,TemperatureHighF,TemperatureAvgF,TemperatureLowF,DewpointHighF,DewpointAvgF,DewpointLowF,HumidityHigh,HumidityAvg,HumidityLow,PressureMaxIn,PressureMinIn,WindSpeedMaxMPH,WindSpeedAvgMPH,GustSpeedMaxMPH,PrecipitationSumIn
2013-1-1,39.0,27.4,20.0,32.0,24.8,19.0,99,91,62,30.22,30.15,1,0,2,0.00
2013-1-2,49.0,32.2,23.0,27.0,21.5,3.0,96,70,15,30.18,30.08,2,1,6,0.00
2013-1-3,51.0,36.9,24.0,27.0,16.5,1.0,83,49,13,30.25,30.11,2,1,6,0.00
2013-1-4,45.0,30.0,22.0,23.0,18.6,8.0,86,67,22,30.32,30.25,1,0,3,0.00
2013-1-5,49.0,31.7,24.0,28.0,21.9,15.0,85,70,26,30.35,30.22,1,0,2,0.00
2013-1-6,33.0,30.4,27.0,31.0,26.7,20.0,100,87,68,30.25,29.80,1,0,3,0.00
2013-1-7,44.0,36.6,26.0,27.0,17.5,10.0,98,50,24,30.15,29.94,2,1,11,0.00
2013-1-8,54.0,36.4,29.0,32.0,27.3,20.0,94,73,27,30.28,30.15,1,0,5,0.00
2013-1-9,53.0,37.7,32.0,35.0,31.8,29.0,96,81,39,30.32,30.11,1,0,2,0.00
2013-1-10,34.0,29.9,20.0,34.0,28.7,18.0,100,96,77,30.11,29.87,2,1,6,0.00
2013-1-11,29.0,21.9,16.0,22.0,17.4,14.0,96,84,57,30.08,29.73,1,0,3,0.00
2013-1-12,31.0,21.6,15.0,18.0,12.9,6.0,95,73,36,30.08,29.97,1,0,4,0.00
2013-1-13,32.0,23.3,13.0,15.0,11.1,3.0,92,63,31,30.08,30.01,1,0,4,0.00
2013-1-14,31.0,24.3,11.0,12.0,6.0,-7.0,84,48,24,30.25,30.04,2,1,5,0.00
2013-1-15,45.0,32.3,18.0,22.0,15.1,6.0,75,52,29,30.39,30.25,2,1,7,0.00
2013-1-16,48.0,45.0,40.0,23.0,21.3,20.0,46,39,34,30.39,30.35,2,1,5,0.00
2013-1-17,50.0,38.3,32.0,27.0,25.4,24.0,73,61,36,30.32,30.25,1,0,1,0.00
2013-1-18,58.0,37.8,29.0,29.0,23.6,18.0,78,61,22,30.32,30.25,1,0,3,0.00
2013-1-19,57.0,39.8,29.0,27.0,21.6,14.0,79,54,19,30.35,30.28,1,0,3,0.00
2013-1-20,58.0,39.0,28.0,25.0,18.8,11.0,67,49,16,30.32,30.22,1,0,3,0.00
2013-1-21,58.0,39.8,29.0,24.0,16.3,5.0,62,44,12,30.28,30.22,1,0,3,0.00
2013-1-22,63.0,41.9,28.0,29.0,21.7,10.0,69,50,12,30.32,30.25,1,0,3,0.00
2013-1-23,59.0,47.8,39.0,36.0,32.1,27.0,78,58,30,30.32,30.25,2,1,7,0.00
2013-1-24,51.0,45.5,41.0,50.0,43.5,36.0,98,93,69,30.32,30.22,1,0,5,0.00
2013-1-25,49.0,45.8,43.0,48.0,45.1,43.0,99,97,95,30.28,30.11,1,0,3,0.00
2013-1-26,45.0,43.8,42.0,45.0,43.6,41.0,99,99,99,30.11,30.01,1,0,2,0.00
2013-1-27,42.0,35.5,29.0,41.0,34.1,29.0,100,95,82,30.08,29.97,1,1,3,0.00
2013-1-28,31.0,27.5,22.0,29.0,24.4,21.0,100,89,71,30.08,29.97,1,0,4,0.00
2013-1-29,44.0,30.0,21.0,33.0,25.3,20.0,99,85,48,0.00,40.00,2,1,4,0.00
2013-1-30,51.0,39.6,29.0,37.0,31.0,24.0,98,74,46,0.00,40.00,2,1,7,0.00
2013-1-31,55.0,42.5,32.0,37.0,31.9,25.0,93,69,39,0.00,40.00,1,0,4,0.00
2013-2-1,42.0,32.8,30.0,32.0,29.7,28.0,96,89,67,0.00,40.00,1,0,1,0.00
2013-2-3,37.0,34.2,32.0,36.0,33.7,32.0,100,98,97,0.00,40.00,0,0,1,0.00
2013-2-4,56.0,42.5,32.0,38.0,33.7,30.0,100,75,44,0.00,40.00,1,0,4,0.00
2013-2-5,55.0,38.7,29.0,37.0,30.4,25.0,97,76,34,0.00,40.00,1,0,3,0.00
2013-2-6,51.0,37.0,28.0,38.0,30.0,23.0,90,77,38,0.00,40.00,2,0,4,0.00
2013-2-7,52.0,36.0,27.0,36.0,26.6,16.0,95,71,25,0.00,40.00,1,0,4,0.00
2013-2-8,32.0,28.4,26.0,31.0,28.3,26.0,100,100,99,0.00,40.00,2,1,4,0.00
2013-2-9,30.0,28.3,25.0,27.0,25.8,24.0,99,90,83,0.00,40.00,1,0,3,0.00
2013-2-15,35.0,32.6,32.0,28.0,26.2,25.0,80,77,74,0.00,40.00,1,0,3,0.00
2013-2-16,58.0,39.7,30.0,31.0,24.0,6.0,81,60,12,0.00,40.00,1,0,4,0.00
2013-2-17,50.0,37.5,28.0,31.0,22.5,11.0,86,61,22,0.00,40.00,1,0,3,0.00
2013-2-18,52.0,35.9,27.0,33.0,25.9,20.0,92,71,28,0.00,40.00,1,0,3,0.00
2013-2-19,33.0,28.6,23.0,31.0,26.5,16.0,100,92,68,0.00,40.00,2,1,4,0.00
2013-2-20,30.0,25.7,21.0,29.0,25.1,19.0,100,97,90,0.00,40.00,1,0,4,0.00
2013-2-21,32.0,24.1,16.0,30.0,22.2,15.0,97,92,80,0.00,40.00,2,0,5,0.00
2013-2-22,41.0,26.7,17.0,33.0,22.9,16.0,98,88,53,0.00,40.00,1,0,3,0.00
2013-2-23,45.0,31.9,24.0,31.0,25.7,23.0,99,82,43,0.00,40.00,1,0,4,0.00
2013-2-24,43.0,31.8,23.0,25.0,16.7,1.0,98,59,20,0.00,40.00,2,0,7,0.00
2013-2-25,47.0,31.5,21.0,28.0,17.4,8.0,83,62,20,30.18,30.15,1,0,3,0.00
2013-2-26,52.0,34.8,25.0,29.0,20.6,12.0,86,62,20,30.22,30.08,1,0,4,0.00
2013-2-27,50.0,37.1,25.0,28.0,16.9,3.0,78,50,18,30.39,30.22,2,1,8,0.00
2013-2-28,56.0,46.1,37.0,29.0,15.1,1.0,70,32,15,30.49,30.35,2,1,8,0.00
2013-3-1,63.0,47.8,31.0,32.0,23.3,14.0,80,45,16,30.49,30.18,2,1,7,0.00
2013-3-2,64.0,44.5,31.0,35.0,26.3,18.0,79,56,18,30.46,30.32,1,0,5,0.00
2013-3-3,55.0,42.6,34.0,34.0,27.7,21.0,78,58,30,30.32,30.11,1,1,3,0.00
2013-3-4,50.0,40.9,32.0,41.0,34.9,26.0,91,80,67,30.22,30.08,1,0,3,0.00
2013-3-5,57.0,40.8,31.0,42.0,31.5,24.0,92,72,36,30.22,30.15,1,1,4,0.00
2013-3-6,49.0,36.4,28.0,38.0,30.5,13.0,96,81,25,30.18,30.08,1,1,3,0.00
2013-3-7,40.0,35.2,29.0,37.0,34.4,29.0,100,97,88,30.08,29.90,1,1,4,0.00
2013-3-8,32.0,29.6,28.0,32.0,29.3,27.0,100,99,92,30.04,29.80,1,0,3,0.00
2013-3-9,36.0,32.3,30.0,35.0,32.1,30.0,100,99,96,30.18,29.80,1,0,2,0.00
2013-3-13,67.0,49.3,32.0,40.0,34.8,30.0,97,64,25,30.39,30.32,1,1,3,0.00
2013-3-14,72.0,56.7,40.0,44.0,37.8,29.0,88,56,22,30.39,30.32,1,1,4,0.00
2013-3-15,70.0,50.1,39.0,46.0,36.7,28.0,93,67,24,30.32,30.18,1,0,3,0.00
2013-3-16,65.0,49.1,38.0,41.0,30.1,14.0,79,53,15,30.18,30.08,1,1,4,0.00
2013-3-17,64.0,46.1,35.0,40.0,32.5,27.0,84,61,30,30.15,30.08,1,1,3,0.00
2013-3-18,62.0,44.9,32.0,43.0,32.2,22.0,82,62,41,30.18,30.08,1,0,3,0.00
2013-3-19,59.0,47.1,36.0,43.0,32.6,26.0,86,60,36,0.00,40.00,1,1,5,0.00
2013-3-20,58.0,46.4,38.0,40.0,34.4,25.0,88,67,28,0.00,40.00,1,0,3,0.00
2013-3-21,59.0,46.0,36.0,42.0,35.6,28.0,87,69,40,0.00,40.00,1,0,4,0.00
2013-3-22,59.0,46.3,31.0,39.0,29.5,13.0,90,58,18,0.00,40.00,2,1,6,0.00
2013-3-23,60.0,43.6,31.0,33.0,24.8,13.0,79,53,18,0.00,40.00,1,0,3,0.00
2013-3-24,62.0,44.4,32.0,35.0,28.2,23.0,87,58,26,0.00,40.00,1,0,3,0.00
2013-3-25,64.0,46.3,34.0,37.0,27.7,19.0,76,53,18,0.00,40.00,1,0,4,0.00
2013-3-26,59.0,44.4,34.0,31.0,26.8,19.0,75,54,23,0.00,40.00,1,0,4,0.00
2013-3-27,57.0,45.1,36.0,41.0,33.7,26.0,92,66,38,0.00,40.00,1,0,4,0.00
2013-3-28,61.0,45.2,33.0,40.0,31.6,28.0,94,63,30,0.00,40.00,1,0,4,0.00
2013-3-29,65.0,48.1,34.0,37.0,33.1,31.0,89,61,31,0.00,40.00,1,0,5,0.00
2013-3-30,61.0,49.6,40.0,45.0,34.5,-99.9,90,60,31,0.00,40.00,1,0,4,0.00
2013-3-31,52.0,42.9,34.0,44.0,36.9,28.0,98,80,57,0.00,40.00,1,0,4,0.00
2013-4-1,49.0,39.6,28.0,39.0,34.6,25.0,98,83,55,0.00,40.00,1,1,4,0.00
2013-4-2,59.0,44.5,30.0,42.0,35.3,28.0,98,73,39,0.00,40.00,1,0,3,0.00
2013-4-3,55.0,43.6,35.0,39.0,35.8,31.0,86,75,54,0.00,40.00,0,0,1,0.00
2013-4-4,62.0,48.6,38.0,39.0,33.7,27.0,81,59,30,0.00,40.00,1,0,4,0.00
2013-4-5,57.0,44.4,35.0,44.0,34.8,22.0,94,73,26,0.00,40.00,1,1,4,0.00
2013-4-6,59.0,45.3,35.0,44.0,39.6,33.0,95,82,58,0.00,40.00,1,0,3,0.00
2013-4-7,61.0,47.2,38.0,47.0,39.1,30.0,90,74,54,0.00,40.00,1,0,3,0.00
2013-4-8,41.0,35.7,32.0,40.0,34.8,30.0,100,97,79,0.00,40.00,2,1,7,0.00
2013-4-9,51.0,37.7,28.0,33.0,26.1,13.0,100,71,22,0.00,40.00,1,1,4,0.00
2013-4-10,61.0,46.4,30.0,30.0,22.0,13.0,87,44,15,0.00,40.00,2,1,6,0.00
2013-4-11,62.0,46.7,34.0,42.0,30.7,24.0,83,59,25,0.00,40.00,1,0,5,0.00
2013-4-12,68.0,51.0,38.0,46.0,35.2,27.0,82,59,23,0.00,40.00,2,0,5,0.00
2013-4-13,62.0,49.2,38.0,45.0,31.6,19.0,74,54,25,0.00,40.00,1,1,4,0.00
2013-4-14,58.0,44.1,36.0,43.0,36.9,24.0,96,77,51,0.00,40.00,2,1,5,0.00
2013-4-15,44.0,39.0,33.0,40.0,36.2,32.0,97,90,75,0.00,40.00,2,1,5,0.00
2013-4-16,41.0,35.0,27.0,35.0,29.0,17.0,96,79,62,0.00,40.00,1,1,5,0.00
2013-4-17,51.0,36.8,25.0,24.0,16.5,4.0,92,52,15,0.00,40.00,1,1,5,0.00
2013-4-18,57.0,44.9,34.0,18.0,8.0,0.0,43,23,13,0.00,40.00,2,1,6,0.00
2013-4-19,66.0,49.4,33.0,20.0,13.2,5.0,50,26,12,0.00,40.00,1,1,4,0.00
2013-4-20,71.0,54.8,36.0,32.0,23.6,18.0,64,35,14,0.00,40.00,2,0,5,0.00
2013-4-21,72.0,54.1,40.0,29.0,25.2,20.0,60,37,15,0.00,40.00,1,0,4,0.00
2013-4-22,67.0,51.8,39.0,38.0,28.0,21.0,68,43,22,0.00,40.00,1,0,4,0.00
2013-4-23,68.0,51.8,38.0,37.0,30.3,24.0,67,47,21,0.00,40.00,1,0,3,0.00
2013-4-24,66.0,49.8,41.0,47.0,35.2,26.0,99,62,24,0.00,40.00,1,0,5,0.00
2013-4-25,52.0,41.1,36.0,44.0,38.9,32.0,100,93,70,0.00,40.00,1,0,3,0.00
2013-4-26,68.0,52.7,35.0,44.0,32.9,26.0,84,52,23,0.00,40.00,1,0,5,0.00
2013-4-27,75.0,55.9,40.0,35.0,24.8,12.0,66,35,10,0.00,40.00,2,0,6,0.00
2013-4-28,76.0,60.0,44.0,32.0,25.6,18.0,53,30,12,0.00,40.00,1,0,4,0.00
2013-4-29,75.0,59.8,45.0,39.0,26.9,18.0,57,32,12,0.00,40.00,1,1,4,0.00
2013-4-30,67.0,54.7,43.0,46.0,32.4,19.0,78,46,21,0.00,40.00,1,1,4,0.00
2013-5-1,70.0,57.1,40.0,35.0,19.8,-2.0,61,29,8,0.00,40.00,2,1,5,0.00
2013-5-2,71.0,60.5,43.0,12.0,1.2,-8.0,23,10,6,0.00,40.00,2,1,9,0.00
2013-5-3,74.0,54.6,38.0,19.0,11.5,5.0,38,20,10,0.00,40.00,1,0,4,0.00
2013-5-4,66.0,49.6,40.0,39.0,21.6,13.0,57,36,13,0.00,40.00,2,0,5,0.00
2013-5-5,52.0,43.8,38.0,43.0,32.1,16.0,99,67,24,0.00,40.00,1,1,4,0.00
2013-5-6,46.0,41.4,38.0,44.0,40.8,37.0,99,99,93,0.00,40.00,1,1,4,0.00
2013-5-7,46.0,40.6,37.0,42.0,39.3,37.0,99,95,78,0.00,40.00,1,0,4,0.00
2013-5-8,48.0,41.8,39.0,45.0,41.1,39.0,100,97,85,0.00,40.00,1,0,2,0.00
2013-5-9,54.0,47.8,39.0,48.0,44.2,38.0,99,88,73,0.00,40.00,1,0,2,0.00
2013-5-10,70.0,59.9,46.0,51.0,40.9,-99.9,94,56,28,0.00,40.00,2,1,7,0.00
2013-5-11,76.0,58.9,44.0,45.0,36.0,-99.9,95,54,18,0.00,40.00,2,1,6,0.00
2013-5-12,79.0,62.8,45.0,43.0,33.5,22.0,78,42,12,0.00,40.00,2,1,7,0.00
2013-5-13,51.0,51.0,51.0,39.0,39.0,39.0,62,62,62,0.00,40.00,0,0,1,0.00
2013-5-14,72.0,60.3,45.0,27.0,21.1,11.0,40,24,12,0.00,40.00,1,1,4,0.00
2013-5-15,66.0,53.7,42.0,44.0,34.3,21.0,69,49,32,0.00,40.00,1,1,4,0.00
2013-5-16,66.0,48.7,43.0,48.0,22.5,-99.9,87,59,17,0.00,40.00,1,1,4,0.00
2013-5-17,58.0,49.9,42.0,48.0,37.9,-99.9,93,71,43,0.00,40.00,1,1,4,0.00
2013-5-18,61.0,49.2,38.0,49.0,41.9,34.0,91,77,57,0.00,40.00,1,1,4,0.00
2013-5-19,71.0,54.0,37.0,50.0,38.5,30.0,85,59,24,0.00,40.00,1,0,4,0.00
2013-5-20,75.0,59.1,44.0,42.0,33.4,24.0,70,44,16,0.00,40.00,2,0,5,0.00
2013-5-21,72.0,56.8,42.0,40.0,32.0,25.0,62,42,20,0.00,40.00,1,0,3,0.00
2013-5-22,67.0,53.7,43.0,41.0,30.6,17.0,72,43,24,0.00,40.00,1,1,4,0.00
2013-5-23,60.0,48.4,36.0,42.0,27.8,0.0,84,47,9,0.00,40.00,1,1,4,0.00
2013-5-24,61.0,46.9,34.0,41.0,25.8,8.0,78,45,12,0.00,40.00,1,0,4,0.00
2013-5-25,61.0,47.5,34.0,41.0,26.1,12.0,79,45,22,0.00,40.00,1,0,4,0.00
2013-5-26,62.0,47.8,34.0,44.0,29.6,12.0,84,52,22,0.00,40.00,1,0,4,0.00
2013-5-27,65.0,50.6,38.0,49.0,39.2,28.0,84,66,46,0.00,40.00,1,1,4,0.00
2013-5-28,64.0,52.5,43.0,50.0,42.3,36.0,93,70,44,0.00,40.00,1,1,4,0.00
2013-5-29,74.0,56.6,40.0,49.0,39.4,32.0,92,57,28,0.00,40.00,2,1,6,0.00
2013-5-30,73.0,56.2,44.0,48.0,39.9,30.0,75,56,35,0.00,40.00,1,0,3,0.00
2013-5-31,80.0,61.6,47.0,51.0,38.8,27.0,63,44,29,0.00,40.00,1,0,3,0.00
2013-6-1,82.0,63.7,51.0,41.0,31.7,25.0,49,34,13,0.00,40.00,2,0,5,0.00
2013-6-3,73.0,63.5,49.0,46.0,40.8,26.0,64,45,28,0.00,40.00,1,1,3,0.00
2013-6-4,72.0,56.8,43.0,46.0,29.0,18.0,72,36,15,0.00,40.00,1,0,4,0.00
2013-6-5,76.0,60.4,45.0,45.0,30.5,14.0,54,33,13,0.00,40.00,1,0,3,0.00
2013-6-6,78.0,62.2,48.0,51.0,34.7,23.0,66,37,20,0.00,40.00,1,0,4,0.00
2013-6-7,86.0,65.6,50.0,52.0,32.3,18.0,54,31,14,0.00,40.00,1,0,4,0.00
2013-6-8,86.0,70.6,55.0,54.0,41.5,28.0,62,38,12,0.00,40.00,1,1,3,0.00
2013-6-9,80.0,64.0,52.0,44.0,34.3,18.0,62,35,12,0.00,40.00,2,1,5,0.00
2013-6-10,74.0,61.8,48.0,40.0,26.8,13.0,50,27,15,0.00,40.00,1,1,6,0.00
2013-6-11,80.0,61.2,47.0,42.0,29.7,13.0,52,33,12,0.00,40.00,1,0,3,0.00
2013-6-12,76.0,56.9,48.0,48.0,32.7,21.0,65,40,30,0.00,40.00,1,0,3,0.00
2013-6-13,76.0,62.5,46.0,46.0,31.4,16.0,57,33,13,0.00,40.00,1,1,4,0.00
2013-6-14,75.0,55.3,43.0,36.0,17.8,7.0,42,25,9,0.00,40.00,1,0,3,0.00
2013-6-15,72.0,53.6,41.0,34.0,14.0,-1.0,39,22,6,0.00,40.00,1,0,4,0.00
2013-6-16,75.0,57.7,40.0,47.0,19.6,7.0,64,26,9,0.00,40.00,1,0,3,0.00
2013-6-17,76.0,59.5,44.0,46.0,26.8,14.0,60,30,17,0.00,40.00,1,0,4,0.00
2013-6-18,75.0,58.1,45.0,45.0,30.7,18.0,63,38,20,0.00,40.00,1,0,4,0.00
2013-6-19,72.0,56.7,44.0,48.0,30.9,16.0,71,39,25,0.00,40.00,1,0,3,0.00
2013-6-20,72.0,52.2,43.0,32.0,18.2,10.0,38,27,17,0.00,40.00,1,0,3,0.00
2013-6-21,66.0,66.0,66.0,44.0,44.0,44.0,46,46,46,0.00,40.00,1,1,3,0.00
2013-6-22,71.0,66.4,47.0,45.0,37.5,30.0,70,36,28,0.00,40.00,1,1,5,0.00
2013-6-23,68.0,57.0,45.0,48.0,38.1,30.0,76,51,29,0.00,40.00,1,0,4,0.00
2013-6-24,65.0,53.9,46.0,51.0,43.0,26.0,90,68,24,0.00,40.00,1,0,3,0.00
2013-6-25,72.0,57.7,46.0,54.0,47.5,42.0,90,71,48,0.00,40.00,1,0,4,0.00
2013-6-26,81.0,64.7,52.0,54.0,49.5,46.0,84,61,34,0.00,40.00,1,0,4,0.00
2013-6-27,85.0,66.4,55.0,50.0,46.1,36.0,70,52,20,0.00,40.00,1,0,3,0.00
2013-6-28,86.0,76.8,55.0,53.0,43.2,18.0,55,32,18,0.00,40.00,1,1,5,0.00
2013-6-29,91.0,75.7,58.0,49.0,36.2,22.0,46,26,13,0.00,40.00,1,0,3,0.00
2013-6-30,93.0,77.0,61.0,52.0,37.7,33.0,44,27,13,0.00,40.00,1,0,4,0.00
2013-7-1,84.0,73.0,62.0,51.0,42.1,34.0,55,34,23,0.00,40.00,1,0,4,0.00
2013-7-2,84.0,70.2,59.0,56.0,44.0,39.0,58,41,23,0.00,40.00,1,0,4,0.00
2013-7-3,85.0,69.9,59.0,54.0,44.0,37.0,61,41,23,0.00,40.00,1,0,4,0.00
2013-7-4,83.0,69.7,59.0,48.0,41.2,35.0,60,38,22,0.00,40.00,1,0,3,0.00
2013-7-5,81.0,66.9,57.0,56.0,43.1,29.0,65,44,25,0.00,40.00,1,0,3,0.00
2013-7-6,81.0,66.1,58.0,55.0,45.7,28.0,63,50,30,0.00,40.00,1,0,3,0.00
2013-7-7,83.0,68.0,55.0,34.0,28.4,24.0,39,24,14,0.00,40.00,1,0,4,0.00
2013-7-8,86.0,72.8,55.0,39.0,29.5,-99.9,36,23,12,0.00,40.00,1,1,3,0.00
2013-7-9,87.0,74.0,59.0,46.0,37.0,27.0,40,27,14,0.00,40.00,1,0,4,0.00
2013-7-10,81.0,68.0,61.0,54.0,42.1,-99.9,55,42,22,0.00,40.00,1,0,3,0.00
2013-7-11,68.0,63.1,56.0,59.0,50.5,43.0,78,64,49,0.00,40.00,1,0,2,0.00
2013-7-12,77.0,63.8,54.0,57.0,51.0,45.0,77,64,44,0.00,40.00,1,0,3,0.00
2013-7-13,82.0,68.0,52.0,52.0,42.1,28.0,70,42,20,0.00,40.00,1,0,5,0.00
2013-7-15,80.0,70.7,55.0,40.0,35.7,31.0,39,28,19,0.00,40.00,1,1,4,0.00
2013-7-16,78.0,61.5,52.0,36.0,31.2,21.0,46,34,12,0.00,40.00,1,0,4,0.00
2013-7-17,81.0,59.0,45.0,41.0,25.0,15.0,46,30,11,0.00,40.00,1,0,4,0.00
2013-7-18,80.0,73.4,51.0,38.0,27.6,15.0,32,19,13,0.00,40.00,1,0,2,0.00
2013-7-19,82.0,67.6,57.0,44.0,35.2,21.0,44,31,19,0.00,40.00,1,0,4,0.00
2013-7-20,78.0,68.1,60.0,64.0,53.7,-99.9,89,64,26,0.00,40.00,2,0,4,0.00
2013-7-21,70.0,63.1,59.0,65.0,59.2,55.0,96,87,70,0.00,40.00,2,0,5,0.00
2013-7-22,70.0,62.0,55.0,61.0,58.2,54.0,97,88,74,0.00,40.00,1,0,2,0.00
2013-7-23,74.0,62.6,54.0,60.0,55.3,53.0,97,79,52,0.00,40.00,1,0,4,0.00
2013-7-24,78.0,64.9,55.0,58.0,52.8,46.0,94,69,36,0.00,40.00,1,0,4,0.00
2013-7-25,82.0,69.0,56.0,54.0,49.9,48.0,77,54,31,0.00,40.00,1,0,4,0.00
2013-7-26,77.0,67.5,59.0,58.0,52.4,41.0,72,59,42,0.00,40.00,1,0,3,0.00
2013-7-27,78.0,67.6,57.0,58.0,52.8,47.0,81,62,36,0.00,40.00,1,0,3,0.00
2013-7-28,76.0,64.3,52.0,46.0,35.8,21.0,65,37,21,0.00,40.00,1,0,3,0.00
2013-7-29,76.0,64.2,49.0,45.0,34.2,21.0,58,34,22,0.00,40.00,1,0,3,0.00
2013-7-30,76.0,64.4,54.0,49.0,44.7,40.0,71,51,33,0.00,40.00,1,0,4,0.00
2013-7-31,80.0,66.7,54.0,49.0,39.3,14.0,76,40,20,0.00,40.00,1,1,4,0.00
2013-8-1,80.0,66.0,54.0,41.0,24.7,13.0,33,22,10,0.00,40.00,1,1,4,0.00
2013-8-2,77.0,68.2,52.0,46.0,35.5,25.0,56,32,19,0.00,40.00,1,1,3,0.00
2013-8-3,76.0,64.9,49.0,47.0,35.2,11.0,61,36,14,0.00,40.00,1,0,3,0.00
2013-8-4,79.0,71.9,52.0,47.0,38.0,16.0,55,31,19,0.00,40.00,1,1,4,0.00
2013-8-5,80.0,69.7,50.0,40.0,27.8,14.0,37,24,10,0.00,40.00,1,1,4,0.00
2013-8-6,77.0,68.2,52.0,38.0,26.4,14.0,41,24,11,0.00,40.00,1,1,5,0.00
2013-8-7,77.0,66.7,48.0,28.0,23.0,17.0,39,20,13,0.00,40.00,1,1,4,0.00
2013-8-8,74.0,67.5,50.0,27.0,23.4,15.0,40,20,13,0.00,40.00,1,1,4,0.00
2013-8-10,72.0,64.3,50.0,46.0,40.7,33.0,66,45,25,0.00,40.00,1,1,4,0.00
2013-8-11,77.0,68.4,47.0,46.0,37.8,26.0,62,36,20,0.00,40.00,1,1,4,0.00
2013-8-12,79.0,71.8,49.0,46.0,34.3,27.0,56,27,18,0.00,40.00,1,1,4,0.00
2013-8-13,82.0,68.3,50.0,44.0,31.5,-99.9,49,29,18,0.00,40.00,1,1,3,0.00
2013-8-14,87.0,75.0,52.0,42.0,27.9,-99.9,48,21,12,0.00,40.00,1,1,3,0.00
2013-8-15,85.0,60.2,58.0,43.0,16.6,-99.9,54,28,14,0.00,40.00,1,0,5,0.00
2013-8-16,84.0,71.4,59.0,50.0,37.7,-99.9,63,36,24,0.00,40.00,1,1,4,0.00
2013-8-17,86.0,75.7,64.0,50.0,42.3,-99.9,52,33,24,0.00,40.00,1,1,4,0.00
2013-8-18,87.0,75.5,63.0,53.0,47.5,45.0,61,39,26,0.00,40.00,1,0,8,0.00
2013-8-19,82.0,65.8,60.0,56.0,37.3,-99.9,68,50,33,0.00,40.00,1,0,3,0.00
2013-8-20,83.0,67.7,57.0,45.0,34.7,-99.9,58,35,19,0.00,40.00,1,0,3,0.00
2013-8-21,85.0,77.1,57.0,45.0,39.0,33.0,54,27,18,0.00,40.00,1,1,4,0.00
2013-8-24,84.0,68.7,58.0,47.0,33.9,-99.9,66,34,13,0.00,40.00,1,0,3,0.00
2013-8-25,74.0,64.5,55.0,63.0,51.7,41.0,94,65,48,0.00,40.00,1,0,4,0.00
2013-8-26,68.0,61.4,56.0,60.0,55.8,52.0,92,82,70,0.00,40.00,1,0,3,0.00
2013-8-27,56.0,56.0,56.0,54.0,54.0,54.0,92,92,92,0.00,40.00,0,0,1,0.00
2013-8-30,63.0,62.4,62.0,62.0,61.4,61.0,96,96,96,0.00,40.00,0,0,1,0.00
2013-8-31,75.0,66.2,61.0,64.0,58.0,-99.9,97,80,65,0.00,40.00,1,0,3,0.00
2013-9-1,78.0,69.9,54.0,61.0,56.0,49.0,94,64,44,0.00,40.00,1,1,4,0.00
2013-9-2,79.0,66.7,55.0,64.0,57.1,50.0,97,76,41,0.00,40.00,1,0,3,0.00
2013-9-3,67.0,58.9,55.0,65.0,57.6,55.0,97,96,88,0.00,40.00,1,0,2,0.00
2013-9-4,78.0,61.7,56.0,62.0,56.9,54.0,97,85,43,0.00,40.00,1,0,4,0.00
2013-9-5,80.0,65.4,56.0,62.0,55.7,53.0,96,76,39,0.00,40.00,1,0,4,0.00
2013-9-6,82.0,73.0,57.0,56.0,51.1,48.0,96,49,31,0.00,40.00,1,0,4,0.00
2013-9-7,77.0,63.1,56.0,64.0,52.1,-99.9,94,73,43,0.00,40.00,1,0,3,0.00
2013-9-8,78.0,67.2,53.0,55.0,46.8,40.0,90,51,30,0.00,40.00,1,0,4,0.00
2013-9-9,76.0,64.0,54.0,56.0,47.6,43.0,85,58,32,0.00,40.00,1,0,4,0.00
2013-9-25,65.0,57.4,45.0,38.0,28.2,10.0,45,33,23,0.00,40.00,1,1,5,0.00
2013-9-26,53.0,44.7,36.0,44.0,35.9,9.0,94,73,25,0.00,40.00,1,1,3,0.00
2013-9-27,63.0,49.3,32.0,34.0,21.5,9.0,94,41,17,0.00,40.00,1,1,4,0.00
2013-9-28,71.0,60.6,38.0,18.0,11.9,-99.9,36,17,12,0.00,40.00,1,1,4,0.00
2013-9-29,72.0,59.5,40.0,23.0,16.8,14.0,41,22,12,0.00,40.00,1,1,4,0.00
2013-9-30,74.0,64.3,43.0,30.0,19.7,15.0,45,20,11,0.00,40.00,1,1,3,0.00
2013-10-2,68.0,56.6,45.0,44.0,34.1,14.0,74,45,24,0.00,40.00,1,1,3,0.00
2013-10-3,62.0,54.3,40.0,49.0,36.6,14.0,91,54,32,0.00,40.00,1,1,3,0.00
2013-10-4,67.0,59.8,52.0,28.0,9.8,-7.0,26,15,7,0.00,40.00,2,1,11,0.00
2013-10-5,69.0,58.7,47.0,9.0,4.8,-3.0,17,12,8,0.00,40.00,2,1,10,0.00
2013-10-6,73.0,70.0,65.0,12.0,10.0,8.0,11,10,9,0.00,40.00,1,1,3,0.00
2013-10-7,69.0,60.7,39.0,25.0,13.3,3.0,42,18,9,0.00,40.00,1,1,3,0.00
2013-10-8,42.0,40.8,40.0,15.0,12.7,11.0,33,31,30,0.00,40.00,0,0,1,0.00
2013-10-18,68.0,60.9,37.0,26.0,20.3,17.0,60,24,15,0.00,40.00,1,1,3,0.00
2013-10-19,70.0,63.3,64.0,19.0,7.1,-99.9,17,12,12,0.00,40.00,1,1,3,0.00
2013-10-20,69.0,61.6,39.0,24.0,16.3,12.0,36,19,12,0.00,40.00,1,1,3,0.00
2013-10-21,71.0,63.7,39.0,30.0,20.2,14.0,40,20,12,0.00,40.00,1,1,4,0.00
2013-10-22,70.0,68.4,66.0,21.0,18.3,17.0,18,15,14,0.00,40.00,1,1,3,0.00
2013-10-23,68.0,64.7,61.0,43.0,28.6,19.0,51,28,17,0.00,40.00,1,1,2,0.00
2013-10-24,67.0,51.8,39.0,35.0,27.4,21.0,57,41,17,0.00,40.00,1,0,3,0.00
2013-10-25,70.0,57.5,40.0,35.0,24.8,21.0,52,32,15,0.00,40.00,1,0,3,0.00
2013-10-26,71.0,63.0,55.0,33.0,21.2,-99.9,36,23,16,0.00,40.00,1,0,4,0.00
2013-10-27,66.0,55.0,41.0,38.0,29.9,21.0,69,43,18,0.00,40.00,1,1,3,0.00
2013-11-4,45.0,37.3,30.0,40.0,33.4,22.0,97,86,70,0.00,40.00,1,0,2,0.00
2013-11-5,53.0,48.0,34.0,29.0,24.7,18.0,73,42,26,0.00,40.00,1,1,3,0.00
2013-11-6,63.0,61.0,56.0,11.0,6.5,4.0,16,11,10,0.00,40.00,1,1,3,0.00
2013-11-7,66.0,61.0,43.0,19.0,13.6,10.0,36,17,11,0.00,40.00,1,1,3,0.00
2013-11-8,60.0,40.1,37.0,22.0,17.5,9.0,50,41,13,0.00,40.00,1,0,2,0.00
2013-11-9,64.0,45.9,35.0,16.0,7.5,-99.9,43,26,13,0.00,40.00,1,0,3,0.00
2013-11-10,62.0,49.8,39.0,21.0,17.1,13.0,43,30,15,0.00,40.00,1,0,3,0.00
2013-11-14,68.0,59.0,42.0,26.0,22.6,19.0,53,26,16,0.00,40.00,1,1,3,0.00
2013-11-15,46.0,43.2,38.0,41.0,36.3,28.0,97,78,53,0.00,40.00,1,0,3,0.00
2013-11-16,41.0,38.2,38.0,40.0,35.2,-99.9,100,96,92,0.00,40.00,1,0,2,0.00
2013-11-17,48.0,38.1,32.0,43.0,36.7,32.0,100,95,80,0.00,40.00,1,0,2,0.00
2013-11-18,53.0,36.7,31.0,42.0,34.7,31.0,100,93,68,0.00,40.00,1,0,3,0.00
2013-11-19,50.0,42.4,35.0,44.0,40.3,33.0,97,93,79,0.00,40.00,1,1,3,0.00
2013-11-20,50.0,43.8,36.0,43.0,39.1,33.0,96,85,63,0.00,40.00,1,1,4,0.00
2013-11-21,44.0,40.9,33.0,44.0,40.5,33.0,100,98,97,0.00,40.00,1,1,4,0.00
2013-11-22,38.0,33.3,31.0,38.0,33.2,31.0,100,100,98,0.00,40.00,1,0,2,0.00
2013-11-23,41.0,32.1,28.0,38.0,29.6,-99.9,100,99,87,0.00,40.00,1,0,3,0.00
2013-11-24,42.0,32.8,27.0,36.0,31.3,27.0,100,94,75,0.00,40.00,1,0,2,0.00
2013-11-25,53.0,40.8,30.0,34.0,29.7,22.0,100,69,32,0.00,40.00,2,1,5,0.00
2013-11-26,56.0,53.7,45.0,35.0,29.3,27.0,68,40,33,0.00,40.00,1,1,3,0.00
2013-11-27,53.0,47.5,37.0,32.0,29.4,28.0,74,51,38,0.00,40.00,1,0,4,0.00
2013-11-28,51.0,40.4,31.0,34.0,29.5,27.0,86,68,42,0.00,40.00,1,0,3,0.00
2013-11-29,48.0,40.7,32.0,45.0,37.5,29.0,99,89,61,0.00,40.00,1,0,1,0.00
2013-11-30,54.0,38.5,33.0,47.0,31.9,-99.9,100,87,49,0.00,40.00,1,0,4,0.00
2013-12-1,57.0,39.9,32.0,35.0,32.5,30.0,97,80,36,0.00,40.00,1,0,3,0.00
2013-12-2,61.0,55.7,43.0,31.0,25.8,21.0,60,33,22,0.00,40.00,1,0,2,0.00
2013-12-3,54.0,43.6,35.0,40.0,31.3,18.0,99,68,25,0.00,40.00,1,1,4,0.00
2013-12-4,40.0,32.8,28.0,40.0,31.0,25.0,100,94,67,0.00,40.00,2,1,5,0.00
2013-12-5,34.0,28.0,24.0,29.0,25.8,21.0,100,92,63,0.00,40.00,1,0,2,0.00
2013-12-6,32.0,26.7,19.0,30.0,25.1,18.0,100,94,78,0.00,40.00,1,0,2,0.00
2013-12-7,33.0,29.4,24.0,33.0,28.7,23.0,100,98,91,0.00,40.00,1,1,4,0.00
2013-12-8,31.0,26.5,21.0,31.0,25.9,20.0,99,97,92,0.00,40.00,1,0,2,0.00
2013-12-9,34.0,20.8,16.0,16.0,13.6,0.0,96,80,24,0.00,40.00,2,0,6,0.00
2013-12-10,49.0,49.0,49.0,10.0,10.0,10.0,21,21,21,0.00,40.00,1,1,3,0.00
2013-12-11,50.0,36.7,30.0,26.0,23.0,17.0,86,66,27,0.00,40.00,1,0,2,0.00
2013-12-12,49.0,39.1,29.0,25.0,20.9,14.0,84,54,26,0.00,40.00,1,0,2,0.00
2013-12-13,49.0,39.8,27.0,23.0,18.8,12.0,82,48,25,0.00,40.00,3,1,7,0.00
2013-12-14,56.0,46.6,41.0,20.0,5.4,-99.9,40,21,11,0.00,40.00,3,1,8,0.00
2013-12-15,63.0,61.9,57.0,28.0,20.3,17.0,32,21,17,0.00,40.00,1,1,6,0.00
2013-12-16,65.0,65.0,65.0,28.0,28.0,28.0,24,24,24,0.00,40.00,1,1,2,0.00
2013-12-17,68.0,47.6,43.0,34.0,30.1,24.0,63,54,19,0.00,40.00,1,0,2,0.00
2013-12-18,59.0,45.1,34.0,40.0,25.6,22.0,64,49,23,0.00,40.00,1,0,2,0.00
2013-12-19,34.0,32.2,30.0,33.0,31.8,23.0,100,99,64,0.00,40.00,1,0,3,0.00
2013-12-20,37.0,29.3,26.0,36.0,29.1,25.0,100,99,95,0.00,40.00,1,0,5,0.00
2013-12-21,42.0,27.1,25.0,39.0,24.6,-99.9,100,97,89,0.00,40.00,1,0,3,0.00
2013-12-22,34.0,29.9,28.0,32.0,29.5,28.0,100,98,92,0.00,40.00,1,0,4,0.00
2013-12-23,50.0,50.0,50.0,35.0,35.0,35.0,56,56,56,0.00,40.00,0,0,1,0.00
2013-12-24,58.0,48.8,42.0,31.0,27.3,20.0,61,44,29,0.00,40.00,2,1,5,0.00
2013-12-25,60.0,52.0,42.0,20.0,5.8,-3.0,41,17,8,0.00,40.00,2,1,9,0.00
2013-12-31,59.0,42.4,32.0,20.0,14.4,9.0,47,35,14,0.00,40.00,1,0,2,0.00
2014-1-1,62.0,51.2,35.0,20.0,17.4,13.0,42,29,20,0.00,40.00,1,1,1,0.00
2014-1-2,61.0,47.5,35.0,23.0,21.1,19.0,56,39,20,0.00,40.00,1,0,3,0.00